Home > Weather > Ribeirão Prêto > Past weeks

Flag for Brazil Weather for the Past 2 Weeks in Ribeirão Prêto, São Paulo, Brazil

Now
88 °F

Passing clouds.


Feels Like: 85 °F
Forecast: 59 / 89 °F
Wind: 12 mph from Northwest

Location: Leite Lopes / Ribeir

Current Time: May 6, 2016 at 4:34:44 PM

Latest Report: May 6, 2016 at 4:00 PM


Visibility: N/A

Pressure: 30.01 "Hg (28.21 "Hg at 549m altitude)

Humidity: 29%

Dew Point: 52 °F

Location of Ribeirão PrêtoLocation

Historic Weather in Ribeirão Prêto — Graph

°F

Ribeirão Prêto Temperature Yesterday

Maximum temperature yesterday: 86 °F (at 2:00 PM)
Minimum temperature yesterday: 55 °F (at 6:00 AM)
Average temperature yesterday: 70 °F

High & Low Weather Summary for the Past Weeks

 TemperatureHumidityPressure
High93 °F (Apr 21, 3:00 PM)100% (Apr 27, 3:00 AM)30.15 "Hg (Apr 27, 3:00 AM)
Low48 °F (May 2, 5:00 AM)21% (May 2, 5:00 PM)29.80 "Hg (Apr 25, 3:00 PM)
Average70 °F65%30.02 "Hg
* Reported Apr 21 3:00 PM — May 6 3:00 PM, Ribeirão Prêto, Weather by CustomWeather, © 2016

Note: Actual official high and low records may vary slightly from our data, if they occured in-between our weather recording intervals... More about our weather records

Advertising

Ribeirão Prêto Weather History for the Previous 24 Hours

Scroll right to see more
 ConditionsComfort  
Time TempWeatherWind HumidityBarometerVisibility
3:00 PM
Fri, May 6
90 °FPassing clouds.12 mph27%29.98 "HgN/A
2:00 PM90 °FScattered clouds.12 mph27%30.01 "HgN/A
1:00 PM88 °FPassing clouds.14 mph33%30.04 "HgN/A
12:00 PM86 °FSunny.7 mph40%30.07 "Hg10 mi
11:00 AM79 °FSunny.6 mph48%30.09 "Hg10 mi
10:00 AM73 °FSunny.8 mph57%30.12 "Hg10 mi
9:00 AM68 °FSunny.8 mph64%30.12 "Hg10 mi
8:00 AM61 °FClear.3 mph83%30.09 "Hg4 mi
7:00 AM57 °FFog.6 mph94%30.09 "Hg3 mi
6:00 AM57 °FSunny.7 mph88%30.07 "Hg10 mi
5:00 AM57 °FClear.3 mph88%30.07 "Hg10 mi
3:00 AM61 °FClear.3 mph83%30.07 "Hg10 mi
2:00 AM61 °FClear.3 mph83%30.07 "Hg10 mi
1:00 AM61 °FClear.No wind83%30.07 "Hg10 mi
12:00 AM63 °FClear.No wind77%30.09 "Hg10 mi
11:00 PM
Thu, May 5
64 °FClear.No wind73%30.09 "Hg10 mi
10:00 PM68 °FClear.No wind64%30.09 "Hg10 mi
9:00 PM70 °FClear.5 mph60%30.09 "Hg10 mi
8:00 PM72 °FClear.1 mph57%30.09 "Hg10 mi
7:00 PM77 °FClear.5 mph42%30.07 "Hg10 mi
6:00 PM79 °FClear.5 mph37%30.07 "Hg10 mi
5:00 PM82 °FClear.7 mph30%30.04 "Hg10 mi
4:00 PM84 °FSunny.8 mph29%30.04 "Hg10 mi
Weather by CustomWeather, © 2016

See weather overviewHow to use our weather pages